Location: Goettingen
(51.5300°N, 9.9433°E)
Time: 12:39:33
(UTC+01:00)

ISS - Pass Details

Date: 30 November 2023
Orbit: 416 x 417 km, 51.6° (Epoch: 02 December)

Event Time Altitude Azimuth Distance (km) Brightness Sun altitude
Rises 17:26:34 0° 278° (W) 2,361 1.2 -10.5°
Reaches altitude 10° 17:28:40 10° 278° (W) 1,497 0.1 -10.9°
Maximum altitude 17:32:01 82° 192° (SSW) 426 -3.7 -11.3°
Enters shadow 17:34:46 15° 104° (ESE) 1,243 -1.9 -11.7°
